Weather in Konotop

Ukraine / Sumi District     51°14′20″N   33°12′35″E
temp.,
°C
wind,
m/s
gust,
m/s
humid.,
%
clouds,
%
prec.,
mm/h
press.,
hPa
HPBL,
m
19 april, mon
mon1900:00+4n229340 0.0 101820
03:00+3nne22945 0.0 101833
06:00+3n22955 0.0 101828
09:00+7nne34815 0.0 1018402
12:00+11n236296 0.2 10171286
15:00+12nne556185 0.8 10161169
18:00+11ne456392 0.1 10151128
21:00+8nne378279 0.3 1016217
20 april, tue
tue2000:00+6ne489631 0.0 1015269
03:00+6ne4688100 0.0 1014538
06:00+6nne379294 0.0 1012317
09:00+8ene457898 0.0 1012581
12:00+12ne3460100 0.0 10091032
15:00+13nne6763100 0.9 10061177
18:00+10ne61082100 1.4 1005763
21:00+8n51087100 1.9 1005625
21 april, wed
wed2100:00+7nnw5990100 0.0 1004524
03:00+5nw51192100 0.0 1005639
06:00+6wnw5985100 0.0 1007751
09:00+7w578278 0.1 1009799
12:00+8w6775100 0.4 10111027
15:00+10wsw5759100 0.6 10111650
18:00+10wsw4663100 0.1 10121043
21:00+7s49805 0.1 1014177
22 april, thu
thu2200:00+7ssw51287100 0.1 1014298
03:00+7ssw4989100 0.5 1014208
06:00+6ssw389199 0.0 1015178
09:00+10sw587563 0.1 1016406
12:00+15sw68568 0.1 10161429
15:00+16sw684831 0.3 10162135
18:00+14ssw5962100 0.6 1016470
21:00+10ssw358017 0.9 101774
23 april, fri
fri2300:00+9s378757 0.3 1017168
03:00+8s410895 0.3 1016199
06:00+8s512915 0.0 1016256
09:00+12s7117581 0.0 1016503
12:00+14s7116973 0.0 1015859
15:00+16ssw81160100 1.4 10131466
18:00+8nw7893100 3.5 1015471
21:00+7nnw5788100 4.6 1016398